This is the latest recevied weather packets stored in our database for station/object N1HQ. If no packets are shown the sender has not sent any weather packets the latest 10 day(s).
| Time | Temp. | Humidity | Pressure | Rain* | Wind** | Luminosity | Snow |
|---|---|---|---|---|---|---|---|
| 1788117493 | 32.22° C | 78% | 1015 hPa | 0 mm | - | - | - |
| 1788117196 | 32.22° C | 80% | 1015 hPa | 0 mm | - | - | - |
| 1788116948 | 31.67° C | 80% | 1015.1 hPa | 0 mm | - | - | - |
| 1788116663 | 31.67° C | 79% | 1015.1 hPa | 0 mm | - | - | - |
| 1788116368 | 31.67° C | 77% | 1015.2 hPa | 0 mm | - | - | - |
| 1788116073 | 31.67° C | 77% | 1015.3 hPa | 0 mm | - | - | - |
| 1788115813 | 32.22° C | 76% | 1015.2 hPa | 0 mm | - | - | - |
| 1788115547 | 32.22° C | 76% | 1015.3 hPa | 0 mm | - | - | - |
| 1788115286 | 32.78° C | 74% | 1015.5 hPa | 0 mm | - | - | - |
| 1788115038 | 32.78° C | 74% | 1015.5 hPa | 0 mm | - | - | - |
| 1788114798 | 33.33° C | 75% | 1015.4 hPa | 0 mm | - | - | - |
| 1788114553 | 33.33° C | 74% | 1015.5 hPa | 0 mm | - | - | - |
| 1788114288 | 32.78° C | 77% | 1015.5 hPa | 0 mm | - | - | - |
| 1788113996 | 32.78° C | 76% | 1015.5 hPa | 0 mm | - | - | - |
| 1788113749 | 32.22° C | 77% | 1015.6 hPa | 0 mm | - | - | - |
| 1788113453 | 32.22° C | 76% | 1015.7 hPa | 0 mm | - | - | - |
| 1788113213 | 31.67° C | 76% | 1015.7 hPa | 0 mm | - | - | - |
| 1788112953 | 31.67° C | 76% | 1016 hPa | 0 mm | - | - | - |
| 1788112655 | 32.22° C | 76% | 1016 hPa | 0 mm | - | - | - |
| 1788112408 | 32.22° C | 77% | 1016.1 hPa | 0 mm | - | - | - |
| 1788112108 | 32.22° C | 78% | 1016.2 hPa | 0 mm | - | - | - |
| 1788111846 | 32.22° C | 81% | 1016 hPa | 0 mm | - | - | - |
| 1788111563 | 31.67° C | 79% | 1016 hPa | 0 mm | - | - | - |
| 1788111288 | 31.67° C | 78% | 1016.1 hPa | 0 mm | - | - | - |
| 1788111008 | 31.67° C | 80% | 1016.2 hPa | 0 mm | - | - | - |
* Rain latest hour (hover to see other rain measurements)
** Current wind speed in m/s (hover to see current wind gust speed)